date,time,water_lv
2023-11-01,00:00:00,234.68
2023-11-01,00:10:00,234.69
2023-11-01,00:20:00,234.69
2023-11-01,00:30:00,234.7
2023-11-01,00:40:00,234.7
2023-11-01,00:50:00,234.71
2023-11-01,01:00:00,234.72
2023-11-01,01:10:00,234.71
2023-11-01,01:20:00,234.72
2023-11-01,01:30:00,234.72
2023-11-01,01:40:00,234.72
2023-11-01,01:50:00,234.73
2023-11-01,02:00:00,234.74
2023-11-01,02:10:00,234.73
2023-11-01,02:20:00,234.74
2023-11-01,02:30:00,234.73
2023-11-01,02:40:00,234.73
2023-11-01,02:50:00,234.74
2023-11-01,03:00:00,234.74
2023-11-01,03:10:00,234.74
2023-11-01,03:20:00,234.75
2023-11-01,03:30:00,234.74
2023-11-01,03:40:00,234.74
2023-11-01,03:50:00,234.74
2023-11-01,04:00:00,234.75
2023-11-01,04:10:00,234.74
2023-11-01,04:20:00,234.74
2023-11-01,04:30:00,234.74
2023-11-01,04:40:00,234.73
2023-11-01,04:50:00,234.74
2023-11-01,05:00:00,234.73
2023-11-01,05:10:00,234.72
2023-11-01,05:20:00,234.73
2023-11-01,05:30:00,234.72
2023-11-01,05:40:00,234.73
2023-11-01,05:50:00,234.72
2023-11-01,06:00:00,234.72
2023-11-01,06:10:00,234.71
2023-11-01,06:20:00,234.72
2023-11-01,06:30:00,234.7
2023-11-01,06:40:00,234.71
2023-11-01,06:50:00,234.69
2023-11-01,07:00:00,234.69
2023-11-01,07:10:00,234.7
2023-11-01,07:20:00,234.69
2023-11-01,07:30:00,234.69
2023-11-01,07:40:00,234.67
2023-11-01,07:50:00,234.68
2023-11-01,08:00:00,234.67
2023-11-01,08:10:00,234.67
2023-11-01,08:20:00,234.67
2023-11-01,08:30:00,234.66
2023-11-01,08:40:00,234.64
2023-11-01,08:50:00,234.64
2023-11-01,09:00:00,234.64
2023-11-01,09:10:00,234.63
2023-11-01,09:20:00,234.63
2023-11-01,09:30:00,234.61
2023-11-01,09:40:00,234.61
2023-11-01,09:50:00,234.6
2023-11-01,10:00:00,234.59
2023-11-01,10:10:00,234.58
2023-11-01,10:20:00,-
2023-11-01,10:30:00,-
2023-11-01,10:40:00,234.57
2023-11-01,10:50:00,234.56
2023-11-01,11:00:00,234.56
2023-11-01,11:10:00,234.54
2023-11-01,11:20:00,234.54
2023-11-01,11:30:00,234.53
2023-11-01,11:40:00,234.51
2023-11-01,11:50:00,234.5
2023-11-01,12:00:00,234.5
2023-11-01,12:10:00,-
2023-11-01,12:20:00,234.48
2023-11-01,12:30:00,234.48
2023-11-01,12:40:00,234.47
2023-11-01,12:50:00,234.45
2023-11-01,13:00:00,234.44
2023-11-01,13:10:00,234.43
2023-11-01,13:20:00,234.44
2023-11-01,13:30:00,234.43
2023-11-01,13:40:00,234.41
2023-11-01,13:50:00,234.4
2023-11-01,14:00:00,234.39
2023-11-01,14:10:00,234.38
2023-11-01,14:20:00,-
2023-11-01,14:30:00,234.36
2023-11-01,14:40:00,234.35
2023-11-01,14:50:00,234.33
2023-11-01,15:00:00,234.33
2023-11-01,15:10:00,234.32
2023-11-01,15:20:00,234.31
2023-11-01,15:30:00,234.29
2023-11-01,15:40:00,234.29
2023-11-01,15:50:00,234.28
2023-11-01,16:00:00,234.26
2023-11-01,16:10:00,234.25
2023-11-01,16:20:00,234.23
2023-11-01,16:30:00,234.23
2023-11-01,16:40:00,234.22
2023-11-01,16:50:00,234.2
2023-11-01,17:00:00,234.19
2023-11-01,17:10:00,234.18
2023-11-01,17:20:00,234.17
2023-11-01,17:30:00,234.16
2023-11-01,17:40:00,234.13
2023-11-01,17:50:00,234.13
2023-11-01,18:00:00,234.12
2023-11-01,18:10:00,234.1
2023-11-01,18:20:00,234.1
2023-11-01,18:30:00,234.08
2023-11-01,18:40:00,234.07
2023-11-01,18:50:00,234.06
2023-11-01,19:00:00,234.05
2023-11-01,19:10:00,234.03
2023-11-01,19:20:00,234.02
2023-11-01,19:30:00,234.01
2023-11-01,19:40:00,233.99
2023-11-01,19:50:00,233.97
2023-11-01,20:00:00,233.97
2023-11-01,20:10:00,233.96
2023-11-01,20:20:00,233.95
2023-11-01,20:30:00,233.92
2023-11-01,20:40:00,233.93
2023-11-01,20:50:00,233.91
2023-11-01,21:00:00,233.9
2023-11-01,21:10:00,233.88
2023-11-01,21:20:00,233.88
2023-11-01,21:30:00,233.85
2023-11-01,21:40:00,233.85
2023-11-01,21:50:00,233.84
2023-11-01,22:00:00,233.82
2023-11-01,22:10:00,233.81
2023-11-01,22:20:00,233.8
2023-11-01,22:30:00,233.79
2023-11-01,22:40:00,233.77
2023-11-01,22:50:00,233.75
2023-11-01,23:00:00,233.75
2023-11-01,23:10:00,233.74
2023-11-01,23:20:00,233.73
2023-11-01,23:30:00,233.72
2023-11-01,23:40:00,233.7
2023-11-01,23:50:00,233.69
2023-11-02,00:00:00,233.67
2023-11-02,00:10:00,233.66
2023-11-02,00:20:00,233.64
2023-11-02,00:30:00,233.63
2023-11-02,00:40:00,233.62
2023-11-02,00:50:00,233.61
2023-11-02,01:00:00,233.6
2023-11-02,01:10:00,233.58
2023-11-02,01:20:00,233.56
2023-11-02,01:30:00,233.55
2023-11-02,01:40:00,233.54
2023-11-02,01:50:00,233.53
2023-11-02,02:00:00,233.51
2023-11-02,02:10:00,233.5
2023-11-02,02:20:00,233.49
2023-11-02,02:30:00,233.47
2023-11-02,02:40:00,233.45
2023-11-02,02:50:00,233.44
2023-11-02,03:00:00,233.44
2023-11-02,03:10:00,233.42
2023-11-02,03:20:00,233.39
2023-11-02,03:30:00,233.38
2023-11-02,03:40:00,233.37
2023-11-02,03:50:00,233.37
2023-11-02,04:00:00,233.35
2023-11-02,04:10:00,233.33
2023-11-02,04:20:00,233.32
2023-11-02,04:30:00,233.31
2023-11-02,04:40:00,233.28
2023-11-02,04:50:00,233.28
2023-11-02,05:00:00,233.25
2023-11-02,05:10:00,233.25
2023-11-02,05:20:00,233.23
2023-11-02,05:30:00,233.22
2023-11-02,05:40:00,233.21
2023-11-02,05:50:00,233.18
2023-11-02,06:00:00,233.18
2023-11-02,06:10:00,233.16
2023-11-02,06:20:00,233.14
2023-11-02,06:30:00,233.14
2023-11-02,06:40:00,233.12
2023-11-02,06:50:00,233.1
2023-11-02,07:00:00,233.09
2023-11-02,07:10:00,233.08
2023-11-02,07:20:00,233.07
2023-11-02,07:30:00,233.05
2023-11-02,07:40:00,233.04
2023-11-02,07:50:00,233.03
2023-11-02,08:00:00,233.01
2023-11-02,08:10:00,233
2023-11-02,08:20:00,-
2023-11-02,08:30:00,-
2023-11-02,08:40:00,-
2023-11-02,08:50:00,232.94
2023-11-02,09:00:00,232.92
2023-11-02,09:10:00,232.91
2023-11-02,09:20:00,-
2023-11-02,09:30:00,-
2023-11-02,09:40:00,-
2023-11-02,09:50:00,-
2023-11-02,10:00:00,-
2023-11-02,10:10:00,-
2023-11-02,10:20:00,-
2023-11-02,10:30:00,-
2023-11-02,10:40:00,-
2023-11-02,10:50:00,-
2023-11-02,11:00:00,-
2023-11-02,11:10:00,-
2023-11-02,11:20:00,-
2023-11-02,11:30:00,-
2023-11-02,11:40:00,-
2023-11-02,11:50:00,-
2023-11-02,12:00:00,-
2023-11-02,12:10:00,-
2023-11-02,12:20:00,-
2023-11-02,12:30:00,232.65
2023-11-02,12:40:00,232.62
2023-11-02,12:50:00,232.61
2023-11-02,13:00:00,232.6
2023-11-02,13:10:00,232.58
2023-11-02,13:20:00,232.57
2023-11-02,13:30:00,-
2023-11-02,13:40:00,232.55
2023-11-02,13:50:00,-
2023-11-02,14:00:00,-
2023-11-02,14:10:00,232.51
2023-11-02,14:20:00,-
2023-11-02,14:30:00,-
2023-11-02,14:40:00,232.48
2023-11-02,14:50:00,232.46
2023-11-02,15:00:00,232.45
2023-11-02,15:10:00,232.43
2023-11-02,15:20:00,232.42
2023-11-02,15:30:00,232.4
2023-11-02,15:40:00,232.39
2023-11-02,15:50:00,232.38
2023-11-02,16:00:00,232.37
2023-11-02,16:10:00,232.36
2023-11-02,16:20:00,232.34
2023-11-02,16:30:00,232.34
2023-11-02,16:40:00,232.32
2023-11-02,16:50:00,232.31
2023-11-02,17:00:00,232.29
2023-11-02,17:10:00,232.28
2023-11-02,17:20:00,232.27
2023-11-02,17:30:00,232.26
2023-11-02,17:40:00,232.24
2023-11-02,17:50:00,232.23
2023-11-02,18:00:00,232.23
2023-11-02,18:10:00,232.21
2023-11-02,18:20:00,232.2
2023-11-02,18:30:00,232.19
2023-11-02,18:40:00,232.17
2023-11-02,18:50:00,232.17
2023-11-02,19:00:00,232.15
2023-11-02,19:10:00,232.14
2023-11-02,19:20:00,232.13
2023-11-02,19:30:00,232.12
2023-11-02,19:40:00,232.11
2023-11-02,19:50:00,232.1
2023-11-02,20:00:00,232.09
2023-11-02,20:10:00,232.07
2023-11-02,20:20:00,232.05
2023-11-02,20:30:00,232.05
2023-11-02,20:40:00,232.04
2023-11-02,20:50:00,232.03
2023-11-02,21:00:00,232.02
2023-11-02,21:10:00,232.01
2023-11-02,21:20:00,232
2023-11-02,21:30:00,231.98
2023-11-02,21:40:00,231.98
2023-11-02,21:50:00,231.97
2023-11-02,22:00:00,231.95
2023-11-02,22:10:00,231.95
2023-11-02,22:20:00,231.93
2023-11-02,22:30:00,231.92
2023-11-02,22:40:00,231.91
2023-11-02,22:50:00,231.9
2023-11-02,23:00:00,231.89
2023-11-02,23:10:00,231.88
2023-11-02,23:20:00,231.87
2023-11-02,23:30:00,231.86
2023-11-02,23:40:00,231.85
2023-11-02,23:50:00,231.85
2023-11-03,00:00:00,231.83
2023-11-03,00:10:00,231.82
2023-11-03,00:20:00,231.82
2023-11-03,00:30:00,231.81
2023-11-03,00:40:00,231.79
2023-11-03,00:50:00,231.78
2023-11-03,01:00:00,231.77
2023-11-03,01:10:00,231.78
2023-11-03,01:20:00,231.76
2023-11-03,01:30:00,231.74
2023-11-03,01:40:00,231.74
2023-11-03,01:50:00,231.74
2023-11-03,02:00:00,231.72
2023-11-03,02:10:00,231.71
2023-11-03,02:20:00,231.71
2023-11-03,02:30:00,231.69
2023-11-03,02:40:00,231.69
2023-11-03,02:50:00,231.69
2023-11-03,03:00:00,231.68
2023-11-03,03:10:00,231.66
2023-11-03,03:20:00,231.65
2023-11-03,03:30:00,231.65
2023-11-03,03:40:00,231.65
2023-11-03,03:50:00,231.63
2023-11-03,04:00:00,231.62
2023-11-03,04:10:00,231.62
2023-11-03,04:20:00,231.61
2023-11-03,04:30:00,231.61
2023-11-03,04:40:00,231.59
2023-11-03,04:50:00,231.59
2023-11-03,05:00:00,231.58
2023-11-03,05:10:00,231.58
2023-11-03,05:20:00,231.57
2023-11-03,05:30:00,231.57
2023-11-03,05:40:00,231.55
2023-11-03,05:50:00,231.55
2023-11-03,06:00:00,231.55
2023-11-03,06:10:00,231.54
2023-11-03,06:20:00,231.54
2023-11-03,06:30:00,231.53
2023-11-03,06:40:00,231.52
2023-11-03,06:50:00,231.52
2023-11-03,07:00:00,231.5
2023-11-03,07:10:00,231.5
2023-11-03,07:20:00,231.5
2023-11-03,07:30:00,231.49
2023-11-03,07:40:00,231.47
2023-11-03,07:50:00,231.48
2023-11-03,08:00:00,231.47
2023-11-03,08:10:00,231.47
2023-11-03,08:20:00,-
2023-11-03,08:30:00,231.46
2023-11-03,08:40:00,231.46
2023-11-03,08:50:00,-
2023-11-03,09:00:00,231.44
2023-11-03,09:10:00,-
2023-11-03,09:20:00,-
2023-11-03,09:30:00,231.43
2023-11-03,09:40:00,231.42
2023-11-03,09:50:00,231.42
2023-11-03,10:00:00,231.41
2023-11-03,10:10:00,231.4
2023-11-03,10:20:00,231.41
2023-11-03,10:30:00,231.4
2023-11-03,10:40:00,231.39
2023-11-03,10:50:00,231.39
2023-11-03,11:00:00,231.38
2023-11-03,11:10:00,-
2023-11-03,11:20:00,-
2023-11-03,11:30:00,231.37
2023-11-03,11:40:00,231.37
2023-11-03,11:50:00,-
2023-11-03,12:00:00,231.36
2023-11-03,12:10:00,231.35
2023-11-03,12:20:00,-
2023-11-03,12:30:00,231.34
2023-11-03,12:40:00,231.34
2023-11-03,12:50:00,231.33
2023-11-03,13:00:00,231.32
2023-11-03,13:10:00,231.33
2023-11-03,13:20:00,231.32
2023-11-03,13:30:00,231.32
2023-11-03,13:40:00,-
2023-11-03,13:50:00,-
2023-11-03,14:00:00,231.31
2023-11-03,14:10:00,231.3
2023-11-03,14:20:00,231.31
2023-11-03,14:30:00,231.3
2023-11-03,14:40:00,231.3
2023-11-03,14:50:00,231.29
2023-11-03,15:00:00,231.28
2023-11-03,15:10:00,231.28
2023-11-03,15:20:00,231.27
2023-11-03,15:30:00,231.28
2023-11-03,15:40:00,231.27
2023-11-03,15:50:00,231.27
2023-11-03,16:00:00,231.26
2023-11-03,16:10:00,231.26
2023-11-03,16:20:00,231.26
2023-11-03,16:30:00,231.25
2023-11-03,16:40:00,231.25
2023-11-03,16:50:00,231.25
2023-11-03,17:00:00,231.24
2023-11-03,17:10:00,231.24
2023-11-03,17:20:00,231.24
2023-11-03,17:30:00,231.23
2023-11-03,17:40:00,231.23
2023-11-03,17:50:00,231.22
2023-11-03,18:00:00,231.22
2023-11-03,18:10:00,231.22
2023-11-03,18:20:00,231.21
2023-11-03,18:30:00,231.21
2023-11-03,18:40:00,231.21
2023-11-03,18:50:00,231.2
2023-11-03,19:00:00,231.2
2023-11-03,19:10:00,231.2
2023-11-03,19:20:00,231.2
2023-11-03,19:30:00,231.2
2023-11-03,19:40:00,231.19
2023-11-03,19:50:00,231.19
2023-11-03,20:00:00,231.19
2023-11-03,20:10:00,231.19
2023-11-03,20:20:00,231.18
2023-11-03,20:30:00,231.18
2023-11-03,20:40:00,231.18
2023-11-03,20:50:00,231.17
2023-11-03,21:00:00,231.17
2023-11-03,21:10:00,231.16
2023-11-03,21:20:00,231.16
2023-11-03,21:30:00,231.16
2023-11-03,21:40:00,231.16
2023-11-03,21:50:00,231.15
2023-11-03,22:00:00,231.15
2023-11-03,22:10:00,231.15
2023-11-03,22:20:00,231.14
2023-11-03,22:30:00,231.14
2023-11-03,22:40:00,231.14
2023-11-03,22:50:00,231.13
2023-11-03,23:00:00,231.13
2023-11-03,23:10:00,231.13
2023-11-03,23:20:00,231.13
2023-11-03,23:30:00,231.12
2023-11-03,23:40:00,231.12
2023-11-03,23:50:00,231.12
2023-11-04,00:00:00,231.11
2023-11-04,00:10:00,231.12
2023-11-04,00:20:00,231.11
2023-11-04,00:30:00,231.11
2023-11-04,00:40:00,231.11
2023-11-04,00:50:00,231.1
2023-11-04,01:00:00,231.1
2023-11-04,01:10:00,231.1
2023-11-04,01:20:00,231.09
2023-11-04,01:30:00,231.09
2023-11-04,01:40:00,231.09
2023-11-04,01:50:00,231.09
2023-11-04,02:00:00,231.08
2023-11-04,02:10:00,231.08
2023-11-04,02:20:00,231.08
2023-11-04,02:30:00,231.08
2023-11-04,02:40:00,231.07
2023-11-04,02:50:00,231.07
2023-11-04,03:00:00,231.07
2023-11-04,03:10:00,231.07
2023-11-04,03:20:00,231.07
2023-11-04,03:30:00,231.07
2023-11-04,03:40:00,231.06
2023-11-04,03:50:00,231.06
2023-11-04,04:00:00,231.05
2023-11-04,04:10:00,231.05
2023-11-04,04:20:00,231.05
2023-11-04,04:30:00,231.05
2023-11-04,04:40:00,231.04
2023-11-04,04:50:00,231.04
2023-11-04,05:00:00,231.03
2023-11-04,05:10:00,231.03
2023-11-04,05:20:00,231.03
2023-11-04,05:30:00,231.03
2023-11-04,05:40:00,231.03
2023-11-04,05:50:00,231.03
2023-11-04,06:00:00,231.02
2023-11-04,06:10:00,231.02
2023-11-04,06:20:00,231.02
2023-11-04,06:30:00,231.02
2023-11-04,06:40:00,231.02
2023-11-04,06:50:00,231.01
2023-11-04,07:00:00,231.01
2023-11-04,07:10:00,231.01
2023-11-04,07:20:00,231.01
2023-11-04,07:30:00,231.01
2023-11-04,07:40:00,231
2023-11-04,07:50:00,231
2023-11-04,08:00:00,-
2023-11-04,08:10:00,230.99
2023-11-04,08:20:00,-
2023-11-04,08:30:00,230.99
2023-11-04,08:40:00,230.99
2023-11-04,08:50:00,230.98
2023-11-04,09:00:00,230.98
2023-11-04,09:10:00,-
2023-11-04,09:20:00,230.98
2023-11-04,09:30:00,230.97
2023-11-04,09:40:00,230.97
2023-11-04,09:50:00,230.97
2023-11-04,10:00:00,-
2023-11-04,10:10:00,-
2023-11-04,10:20:00,-
2023-11-04,10:30:00,230.96
2023-11-04,10:40:00,230.96
2023-11-04,10:50:00,230.96
2023-11-04,11:00:00,-
2023-11-04,11:10:00,-
2023-11-04,11:20:00,230.95
2023-11-04,11:30:00,-
2023-11-04,11:40:00,230.95
2023-11-04,11:50:00,230.94
2023-11-04,12:00:00,230.94
2023-11-04,12:10:00,-
2023-11-04,12:20:00,230.94
2023-11-04,12:30:00,230.94
2023-11-04,12:40:00,230.94
2023-11-04,12:50:00,230.93
2023-11-04,13:00:00,230.93
2023-11-04,13:10:00,230.93
2023-11-04,13:20:00,230.93
2023-11-04,13:30:00,-
2023-11-04,13:40:00,230.92
2023-11-04,13:50:00,-
2023-11-04,14:00:00,-
2023-11-04,14:10:00,230.91
2023-11-04,14:20:00,230.92
2023-11-04,14:30:00,230.92
2023-11-04,14:40:00,230.91
2023-11-04,14:50:00,230.92
2023-11-04,15:00:00,230.91
2023-11-04,15:10:00,230.91
2023-11-04,15:20:00,230.9
2023-11-04,15:30:00,230.9
2023-11-04,15:40:00,230.9
2023-11-04,15:50:00,230.9
2023-11-04,16:00:00,230.89
2023-11-04,16:10:00,230.9
2023-11-04,16:20:00,230.89
2023-11-04,16:30:00,230.88
2023-11-04,16:40:00,230.88
2023-11-04,16:50:00,230.88
2023-11-04,17:00:00,230.88
2023-11-04,17:10:00,230.89
2023-11-04,17:20:00,230.88
2023-11-04,17:30:00,230.88
2023-11-04,17:40:00,230.87
2023-11-04,17:50:00,230.88
2023-11-04,18:00:00,230.87
2023-11-04,18:10:00,230.87
2023-11-04,18:20:00,230.86
2023-11-04,18:30:00,230.87
2023-11-04,18:40:00,230.86
2023-11-04,18:50:00,230.87
2023-11-04,19:00:00,230.86
2023-11-04,19:10:00,230.86
2023-11-04,19:20:00,230.86
2023-11-04,19:30:00,230.86
2023-11-04,19:40:00,230.85
2023-11-04,19:50:00,230.85
2023-11-04,20:00:00,230.86
2023-11-04,20:10:00,230.85
2023-11-04,20:20:00,230.85
2023-11-04,20:30:00,230.84
2023-11-04,20:40:00,230.85
2023-11-04,20:50:00,230.84
2023-11-04,21:00:00,230.85
2023-11-04,21:10:00,230.84
2023-11-04,21:20:00,230.84
2023-11-04,21:30:00,230.84
2023-11-04,21:40:00,230.84
2023-11-04,21:50:00,230.83
2023-11-04,22:00:00,230.83
2023-11-04,22:10:00,230.84
2023-11-04,22:20:00,230.83
2023-11-04,22:30:00,230.83
2023-11-04,22:40:00,230.83
2023-11-04,22:50:00,230.82
2023-11-04,23:00:00,230.83
2023-11-04,23:10:00,230.82
2023-11-04,23:20:00,230.82
2023-11-04,23:30:00,230.82
2023-11-04,23:40:00,230.82
2023-11-04,23:50:00,230.82
2023-11-05,00:00:00,230.81
2023-11-05,00:10:00,230.81
2023-11-05,00:20:00,230.81
2023-11-05,00:30:00,230.81
2023-11-05,00:40:00,230.8
2023-11-05,00:50:00,230.81
2023-11-05,01:00:00,230.81
2023-11-05,01:10:00,230.81
2023-11-05,01:20:00,230.8
2023-11-05,01:30:00,230.8
2023-11-05,01:40:00,230.8
2023-11-05,01:50:00,230.8
2023-11-05,02:00:00,230.8
2023-11-05,02:10:00,230.79
2023-11-05,02:20:00,230.8
2023-11-05,02:30:00,230.8
2023-11-05,02:40:00,230.79
2023-11-05,02:50:00,230.79
2023-11-05,03:00:00,230.79
2023-11-05,03:10:00,230.79
2023-11-05,03:20:00,230.79
2023-11-05,03:30:00,230.78
2023-11-05,03:40:00,230.78
2023-11-05,03:50:00,230.78
2023-11-05,04:00:00,230.78
2023-11-05,04:10:00,230.78
2023-11-05,04:20:00,230.78
2023-11-05,04:30:00,230.78
2023-11-05,04:40:00,230.77
2023-11-05,04:50:00,230.78
2023-11-05,05:00:00,230.77
2023-11-05,05:10:00,230.77
2023-11-05,05:20:00,230.77
2023-11-05,05:30:00,230.77
2023-11-05,05:40:00,230.77
2023-11-05,05:50:00,230.77
2023-11-05,06:00:00,230.76
2023-11-05,06:10:00,230.77
2023-11-05,06:20:00,230.76
2023-11-05,06:30:00,230.76
2023-11-05,06:40:00,230.76
2023-11-05,06:50:00,230.76
2023-11-05,07:00:00,230.76
2023-11-05,07:10:00,230.76
2023-11-05,07:20:00,230.76
2023-11-05,07:30:00,230.75
2023-11-05,07:40:00,230.75
2023-11-05,07:50:00,230.75
2023-11-05,08:00:00,230.75
2023-11-05,08:10:00,230.75
2023-11-05,08:20:00,-
2023-11-05,08:30:00,230.74
2023-11-05,08:40:00,-
2023-11-05,08:50:00,-
2023-11-05,09:00:00,-
2023-11-05,09:10:00,230.74
2023-11-05,09:20:00,230.74
2023-11-05,09:30:00,230.74
2023-11-05,09:40:00,230.73
2023-11-05,09:50:00,230.73
2023-11-05,10:00:00,230.73
2023-11-05,10:10:00,230.73
2023-11-05,10:20:00,230.73
2023-11-05,10:30:00,230.72
2023-11-05,10:40:00,230.73
2023-11-05,10:50:00,230.73
2023-11-05,11:00:00,230.72
2023-11-05,11:10:00,230.72
2023-11-05,11:20:00,-
2023-11-05,11:30:00,230.72
2023-11-05,11:40:00,230.72
2023-11-05,11:50:00,230.71
2023-11-05,12:00:00,-
2023-11-05,12:10:00,-
2023-11-05,12:20:00,-
2023-11-05,12:30:00,230.71
2023-11-05,12:40:00,230.71
2023-11-05,12:50:00,230.71
2023-11-05,13:00:00,230.71
2023-11-05,13:10:00,230.71
2023-11-05,13:20:00,230.71
2023-11-05,13:30:00,230.71
2023-11-05,13:40:00,-
2023-11-05,13:50:00,230.7
2023-11-05,14:00:00,-
2023-11-05,14:10:00,230.7
2023-11-05,14:20:00,-
2023-11-05,14:30:00,230.7
2023-11-05,14:40:00,230.7
2023-11-05,14:50:00,230.7
2023-11-05,15:00:00,230.7
2023-11-05,15:10:00,230.69
2023-11-05,15:20:00,230.69
2023-11-05,15:30:00,230.69
2023-11-05,15:40:00,230.69
2023-11-05,15:50:00,230.69
2023-11-05,16:00:00,230.69
2023-11-05,16:10:00,230.69
2023-11-05,16:20:00,230.68
2023-11-05,16:30:00,230.69
2023-11-05,16:40:00,230.68
2023-11-05,16:50:00,230.68
2023-11-05,17:00:00,230.68
2023-11-05,17:10:00,230.68
2023-11-05,17:20:00,230.68
2023-11-05,17:30:00,230.68
2023-11-05,17:40:00,230.68
2023-11-05,17:50:00,230.68
2023-11-05,18:00:00,230.67
2023-11-05,18:10:00,230.67
2023-11-05,18:20:00,230.67
2023-11-05,18:30:00,230.66
2023-11-05,18:40:00,230.66
2023-11-05,18:50:00,230.67
2023-11-05,19:00:00,230.66
2023-11-05,19:10:00,230.66
2023-11-05,19:20:00,230.67
2023-11-05,19:30:00,230.66
2023-11-05,19:40:00,230.66
2023-11-05,19:50:00,230.66
2023-11-05,20:00:00,230.66
2023-11-05,20:10:00,230.66
2023-11-05,20:20:00,230.66
2023-11-05,20:30:00,230.66
2023-11-05,20:40:00,230.66
2023-11-05,20:50:00,230.66
2023-11-05,21:00:00,230.66
2023-11-05,21:10:00,230.66
2023-11-05,21:20:00,230.66
2023-11-05,21:30:00,230.66
2023-11-05,21:40:00,230.66
2023-11-05,21:50:00,230.66
2023-11-05,22:00:00,230.66
2023-11-05,22:10:00,230.66
2023-11-05,22:20:00,230.66
2023-11-05,22:30:00,230.66
2023-11-05,22:40:00,230.65
2023-11-05,22:50:00,230.66
2023-11-05,23:00:00,230.65
2023-11-05,23:10:00,230.65
2023-11-05,23:20:00,230.65
2023-11-05,23:30:00,230.65
2023-11-05,23:40:00,230.65
2023-11-05,23:50:00,230.65
2023-11-06,00:00:00,230.65
2023-11-06,00:10:00,230.65
2023-11-06,00:20:00,230.65
2023-11-06,00:30:00,230.65
2023-11-06,00:40:00,230.65
2023-11-06,00:50:00,230.65
2023-11-06,01:00:00,230.65
2023-11-06,01:10:00,230.64
2023-11-06,01:20:00,230.65
2023-11-06,01:30:00,230.64
2023-11-06,01:40:00,230.64
2023-11-06,01:50:00,230.64
2023-11-06,02:00:00,230.64
2023-11-06,02:10:00,230.64
2023-11-06,02:20:00,230.64
2023-11-06,02:30:00,230.64
2023-11-06,02:40:00,230.64
2023-11-06,02:50:00,230.64
2023-11-06,03:00:00,230.63
2023-11-06,03:10:00,230.63
2023-11-06,03:20:00,230.63
2023-11-06,03:30:00,230.63
2023-11-06,03:40:00,230.63
2023-11-06,03:50:00,230.63
2023-11-06,04:00:00,230.63
2023-11-06,04:10:00,230.63
2023-11-06,04:20:00,230.63
2023-11-06,04:30:00,230.62
2023-11-06,04:40:00,230.62
2023-11-06,04:50:00,230.62
2023-11-06,05:00:00,230.62
2023-11-06,05:10:00,230.62
2023-11-06,05:20:00,230.62
2023-11-06,05:30:00,230.62
2023-11-06,05:40:00,230.62
2023-11-06,05:50:00,230.61
2023-11-06,06:00:00,230.61
2023-11-06,06:10:00,230.61
2023-11-06,06:20:00,230.61
2023-11-06,06:30:00,230.61
2023-11-06,06:40:00,230.61
2023-11-06,06:50:00,230.6
2023-11-06,07:00:00,230.6
2023-11-06,07:10:00,230.6
2023-11-06,07:20:00,230.6
2023-11-06,07:30:00,230.6
2023-11-06,07:40:00,230.6
2023-11-06,07:50:00,230.6
2023-11-06,08:00:00,230.6
2023-11-06,08:10:00,230.6
2023-11-06,08:20:00,230.6
2023-11-06,08:30:00,230.59
2023-11-06,08:40:00,230.58
2023-11-06,08:50:00,-
2023-11-06,09:00:00,-
2023-11-06,09:10:00,-
2023-11-06,09:20:00,-
2023-11-06,09:30:00,230.59
2023-11-06,09:40:00,230.59
2023-11-06,09:50:00,230.58
2023-11-06,10:00:00,230.59
2023-11-06,10:10:00,230.58
2023-11-06,10:20:00,230.58
2023-11-06,10:30:00,230.58
2023-11-06,10:40:00,230.58
2023-11-06,10:50:00,230.58
2023-11-06,11:00:00,230.58
2023-11-06,11:10:00,230.58
2023-11-06,11:20:00,230.58
2023-11-06,11:30:00,230.58
2023-11-06,11:40:00,230.57
2023-11-06,11:50:00,230.57
2023-11-06,12:00:00,230.57
2023-11-06,12:10:00,230.57
2023-11-06,12:20:00,-
2023-11-06,12:30:00,-
2023-11-06,12:40:00,230.56
2023-11-06,12:50:00,230.55
2023-11-06,13:00:00,230.53
2023-11-06,13:10:00,230.54
2023-11-06,13:20:00,230.53
2023-11-06,13:30:00,-
2023-11-06,13:40:00,230.52
2023-11-06,13:50:00,-
2023-11-06,14:00:00,230.51
2023-11-06,14:10:00,-
2023-11-06,14:20:00,230.49
2023-11-06,14:30:00,230.48
2023-11-06,14:40:00,230.48
2023-11-06,14:50:00,230.47
2023-11-06,15:00:00,230.47
2023-11-06,15:10:00,230.46
2023-11-06,15:20:00,230.45
2023-11-06,15:30:00,230.45
2023-11-06,15:40:00,230.44
2023-11-06,15:50:00,230.44
2023-11-06,16:00:00,230.43
2023-11-06,16:10:00,230.43
2023-11-06,16:20:00,230.42
2023-11-06,16:30:00,230.42
2023-11-06,16:40:00,230.42
2023-11-06,16:50:00,230.42
2023-11-06,17:00:00,230.41
2023-11-06,17:10:00,230.41
2023-11-06,17:20:00,230.41
2023-11-06,17:30:00,230.41
2023-11-06,17:40:00,230.41
2023-11-06,17:50:00,230.41
2023-11-06,18:00:00,230.41
2023-11-06,18:10:00,230.4
2023-11-06,18:20:00,230.42
2023-11-06,18:30:00,230.42
2023-11-06,18:40:00,230.42
2023-11-06,18:50:00,230.43
2023-11-06,19:00:00,230.43
2023-11-06,19:10:00,230.43
2023-11-06,19:20:00,230.43
2023-11-06,19:30:00,230.44
2023-11-06,19:40:00,230.44
2023-11-06,19:50:00,230.45
2023-11-06,20:00:00,230.45
2023-11-06,20:10:00,230.46
2023-11-06,20:20:00,230.46
2023-11-06,20:30:00,230.46
2023-11-06,20:40:00,230.47
2023-11-06,20:50:00,230.47
2023-11-06,21:00:00,230.47
2023-11-06,21:10:00,230.48
2023-11-06,21:20:00,230.48
2023-11-06,21:30:00,230.48
2023-11-06,21:40:00,230.49
2023-11-06,21:50:00,230.49
2023-11-06,22:00:00,230.49
2023-11-06,22:10:00,230.49
2023-11-06,22:20:00,230.49
2023-11-06,22:30:00,230.5
2023-11-06,22:40:00,230.5
2023-11-06,22:50:00,230.5
2023-11-06,23:00:00,230.5
2023-11-06,23:10:00,230.51
2023-11-06,23:20:00,230.51
2023-11-06,23:30:00,230.51
2023-11-06,23:40:00,230.51
2023-11-06,23:50:00,230.51
2023-11-07,00:00:00,230.51
2023-11-07,00:10:00,230.51
2023-11-07,00:20:00,230.52
2023-11-07,00:30:00,230.52
2023-11-07,00:40:00,230.52
2023-11-07,00:50:00,230.52
2023-11-07,01:00:00,230.52
2023-11-07,01:10:00,230.52
2023-11-07,01:20:00,230.52
2023-11-07,01:30:00,230.52
2023-11-07,01:40:00,230.52
2023-11-07,01:50:00,230.52
2023-11-07,02:00:00,230.52
2023-11-07,02:10:00,230.52
2023-11-07,02:20:00,230.52
2023-11-07,02:30:00,230.52
2023-11-07,02:40:00,230.52
2023-11-07,02:50:00,230.52
2023-11-07,03:00:00,230.52
2023-11-07,03:10:00,230.52
2023-11-07,03:20:00,230.52
2023-11-07,03:30:00,230.52
2023-11-07,03:40:00,230.52
2023-11-07,03:50:00,230.52
2023-11-07,04:00:00,230.52
2023-11-07,04:10:00,230.52
2023-11-07,04:20:00,230.52
2023-11-07,04:30:00,230.52
2023-11-07,04:40:00,230.52
2023-11-07,04:50:00,230.52
2023-11-07,05:00:00,230.52
2023-11-07,05:10:00,230.52
2023-11-07,05:20:00,230.52
2023-11-07,05:30:00,230.52
2023-11-07,05:40:00,230.52
2023-11-07,05:50:00,230.52
2023-11-07,06:00:00,230.52
2023-11-07,06:10:00,230.52
2023-11-07,06:20:00,230.52
2023-11-07,06:30:00,230.52
2023-11-07,06:40:00,230.52